Lapse_Rate
8.6 8.8 8.9 9.1 8.8 7.1 7.0 7.0 6.4 5.7 5.7 5.8 7.2 9.1 8.8 7.0 3.7 3.3 3.9 4.5 3.5 2.9 1.3 1.3 2.4 4.5 4.7 4.4 4.5 3.9 4.0 3.9 4.1 6.0 7.3 6.4 5.9 6.2 7.0 7.3 7.6 6.1 5.9
8.4 8.5 8.7 8.9 9.0 8.4 7.0 6.9 6.0 5.6 5.4 5.8 6.7 9.0 7.6 1.4 0.3 0.5 1.5 1.3 3.0 2.6 2.5 4.3 3.2 4.3 4.1 3.8 3.7 4.0 4.0 3.9 4.0 5.2 6.5 8.1 8.6 8.4 7.1 7.3 6.3 7.0 6.3
8.1 8.4 8.6 8.6 8.7 8.7 8.1 6.6 5.9 5.2 5.1 5.5 7.1 4.6 1.1 0.2 0.5 0.7 1.9 1.7 1.4 1.9 1.6 3.0 4.0 2.9 3.5 2.9 2.9 3.2 3.8 4.9 4.5 4.9 6.5 7.9 7.7 7.8 8.6 7.4 8.0 7.7 6.7
8.2 8.4 8.4 8.5 8.6 8.8 7.6 6.6 5.6 4.7 4.8 3.9 2.9 2.2 3.1 1.9 1.0 0.7 0.9 0.8 1.1 1.2 2.3 2.2 3.7 3.4 3.1 3.2 2.8 3.3 4.4 5.1 5.5 6.0 5.6 5.6 6.7 8.1 8.0 8.9 9.3 8.9 9.3
8.1 8.2 8.3 8.4 8.7 8.3 6.7 5.5 5.1 4.8 3.9 3.8 4.1 5.0 4.7 2.4 0.3 -0.0 0.6 1.1 1.0 2.0 2.9 3.2 3.4 2.9 3.3 3.0 3.1 3.5 4.4 5.0 5.4 5.5 5.7 6.2 7.3 7.9 8.4 8.0 8.5 9.3 9.7
8.1 8.3 8.4 8.6 8.6 8.7 5.9 4.6 4.1 4.2 4.3 4.4 4.6 6.0 2.8 0.8 -0.4 -0.2 0.3 0.8 1.1 2.3 3.0 2.8 2.6 2.8 3.0 3.1 3.1 3.7 4.1 4.7 4.8 5.1 5.3 6.0 7.3 8.4 8.6 8.4 8.4 8.6 9.1
8.0 8.1 8.2 8.3 8.4 8.6 6.5 4.3 4.1 4.3 4.5 4.7 5.1 4.1 2.9 1.8 0.8 0.8 0.2 0.1 2.3 2.4 2.7 3.0 3.1 2.9 2.5 2.8 3.3 3.7 3.7 4.1 4.9 5.2 5.9 5.9 6.6 7.0 8.1 8.8 8.6 8.6 9.1
8.1 8.1 8.2 8.3 8.4 8.2 7.0 5.0 4.6 4.6 4.9 5.1 4.9 4.1 2.0 1.5 0.8 0.5 1.4 2.5 3.9 3.5 3.2 3.2 2.9 2.7 3.0 3.3 3.6 4.0 4.5 4.2 4.9 5.1 5.5 5.9 6.7 7.3 8.0 8.8 8.7 8.4 8.6
7.9 8.1 8.3 8.3 8.5 8.5 8.0 5.4 5.1 4.8 5.3 5.2 4.9 3.7 2.5 1.5 0.7 1.7 2.4 2.5 2.8 2.9 2.7 2.9 3.1 3.4 3.5 3.8 3.9 4.7 5.0 5.1 5.3 5.9 5.9 6.2 6.6 7.1 8.4 9.0 9.3 8.8 8.2
7.9 8.1 8.3 8.5 8.4 8.7 8.6 7.6 6.6 5.3 5.8 5.4 4.7 3.3 1.9 2.0 2.8 2.7 3.1 3.8 3.4 2.9 3.0 3.3 3.8 3.8 4.0 4.1 4.7 5.0 4.7 5.2 6.0 6.1 6.1 6.5 7.3 7.7 9.0 9.4 9.5 9.4 8.9
8.1 8.2 8.4 8.6 8.6 8.7 8.8 8.4 7.6 5.4 5.6 5.2 3.6 3.0 3.2 3.1 3.4 3.6 4.3 3.9 3.6 3.5 3.9 4.2 4.4 4.5 4.4 4.5 5.0 5.0 5.0 5.5 5.9 6.2 6.1 6.3 7.1 7.8 9.1 9.5 9.5 9.4 9.3
8.0 8.2 8.4 8.5 8.4 8.6 8.8 8.6 6.9 5.7 5.5 4.4 3.0 2.8 2.4 3.9 4.3 4.4 4.0 4.1 3.8 4.1 4.3 4.6 4.5 4.4 4.4 4.7 5.0 5.2 5.5 5.7 5.9 6.0 6.3 6.7 7.7 7.9 9.3 9.6 9.4 9.4 9.6
7.7 8.0 8.2 8.4 8.3 8.6 8.7 8.1 6.9 4.8 4.4 3.6 2.3 2.4 3.6 4.8 4.2 4.0 3.8 3.9 4.1 4.1 4.2 4.4 4.5 4.5 4.2 4.5 5.0 5.5 5.9 6.1 6.0 6.5 6.6 7.0 8.0 9.0 9.5 9.6 9.5 9.5 9.5
7.7 8.0 8.2 8.4 8.4 8.6 8.7 7.7 4.2 3.1 3.5 2.8 3.1 3.6 4.5 4.3 4.1 3.8 3.8 4.0 4.3 4.1 4.2 4.3 4.2 4.1 4.2 4.4 5.2 5.7 6.1 6.4 6.8 6.8 7.0 7.8 8.7 9.4 9.5 9.5 9.5 9.4 9.6
7.7 7.9 8.0 8.2 8.4 8.1 6.6 3.6 2.1 2.9 3.1 3.3 4.0 3.9 3.9 3.8 3.5 3.5 3.6 3.9 4.1 4.1 4.1 4.1 4.1 4.1 4.5 5.3 5.5 6.5 7.2 7.6 7.6 7.8 8.8 9.4 9.4 8.4 9.5 9.5 9.2 9.3 9.3
7.5 7.8 8.0 8.0 7.7 6.2 3.5 2.5 2.6 3.0 3.8 3.4 3.2 2.8 3.2 3.5 3.4 3.6 3.8 4.0 3.8 3.9 4.1 4.2 4.1 4.6 4.7 3.5 4.6 5.3 6.8 7.8 8.0 8.8 9.4 9.7 9.7 9.7 9.6 9.6 9.5 9.2 8.4
7.7 7.8 7.8 7.3 6.6 4.0 2.7 2.9 3.2 4.0 3.5 3.2 3.0 3.2 3.5 3.4 3.6 3.9 4.1 4.1 4.2 4.4 4.4 4.2 4.4 4.8 4.9 3.5 4.5 5.2 6.4 7.7 8.3 9.2 9.5 9.6 9.8 9.7 9.7 9.5 9.5 9.3 9.1
7.8 7.9 7.7 7.2 5.9 4.4 3.9 3.4 4.0 4.3 3.5 3.3 3.3 3.7 3.9 3.6 3.9 4.3 4.0 3.5 4.2 4.5 4.7 4.6 4.5 4.7 5.0 3.6 4.5 5.2 6.8 8.8 9.5 9.6 9.7 9.6 9.6 9.7 9.5 9.4 8.5 8.7 9.5
7.9 7.1 6.6 5.7 5.7 4.9 4.1 4.3 4.1 3.9 3.9 3.5 3.7 4.0 4.2 4.1 4.5 4.0 3.2 3.8 4.6 4.7 4.7 4.3 4.5 5.0 5.7 4.1 4.5 5.5 7.9 9.4 9.5 9.7 9.8 9.7 9.6 9.6 9.5 9.0 8.2 9.2 9.5
7.9 6.6 6.1 5.6 4.4 4.3 3.9 3.7 4.4 4.4 3.9 3.8 4.0 4.6 5.0 4.8 3.6 3.0 4.1 4.0 4.6 4.4 4.4 4.7 5.2 4.6 5.3 5.0 4.9 6.1 8.6 9.4 9.5 9.7 9.7 9.7 9.6 9.6 9.3 9.2 9.4 9.3 9.3
4.7 4.7 4.4 3.9 3.7 4.2 4.6 4.1 4.2 3.9 3.9 4.3 4.7 4.7 4.2 3.0 3.0 4.1 4.4 4.4 4.4 4.4 4.9 5.3 5.8 5.4 5.5 5.8 5.8 6.4 8.5 9.5 9.4 9.4 9.5 9.7 9.6 9.4 9.4 9.5 9.4 9.2 9.3
3.4 3.4 2.7 3.1 3.7 4.2 4.2 4.0 4.0 3.7 3.9 3.6 2.9 2.6 2.4 3.1 4.3 4.5 4.3 4.3 4.5 5.0 5.5 5.6 6.0 6.8 7.0 6.7 6.2 6.6 8.9 9.5 9.5 9.3 9.5 9.9 9.4 9.4 9.4 9.1 9.0 9.4 9.3
4.9 4.9 4.0 3.9 4.9 4.8 4.8 2.4 2.1 2.5 2.5 2.5 2.0 2.3 3.5 4.0 4.4 5.0 4.7 5.0 4.8 5.4 5.6 5.7 6.3 6.9 7.1 7.5 7.4 8.2 9.6 9.6 9.7 9.4 9.7 9.5 9.4 8.3 7.6 8.2 8.2 8.4 9.4
5.1 4.2 3.8 3.9 4.6 3.6 2.7 1.4 1.9 2.5 2.2 1.8 2.3 3.3 4.1 4.2 4.4 4.3 4.5 5.0 5.3 5.6 5.8 6.9 7.3 7.5 8.1 9.2 9.5 9.7 9.7 9.6 9.4 9.5 9.8 9.7 9.1 9.0 9.1 8.8 9.1 9.4 9.3
4.1 4.4 4.2 4.5 3.0 2.4 2.0 1.9 2.0 2.4 2.4 2.7 3.3 4.2 4.3 4.7 4.6 4.3 4.8 5.2 5.1 5.0 6.0 6.7 6.6 7.7 8.5 9.0 9.3 9.6 9.5 9.6 9.5 9.5 9.5 9.3 9.2 9.1 9.2 9.2 9.2 9.2 9.0
3.9 3.5 3.4 2.7 2.1 2.2 1.7 1.9 2.6 3.1 3.3 3.4 4.1 4.5 4.7 4.7 4.5 4.8 5.4 3.4 4.1 4.5 4.8 5.2 6.1 6.6 7.2 7.6 8.8 9.3 9.4 9.4 9.1 8.6 9.0 9.0 9.0 8.9 8.8 8.5 7.7 6.9 6.7
Wind_Speed
18 17 16 14 12 13 13 13 12 12 11 10 11 11 10 8 6 5 12 12 14 15 13 7 6 7 4 4 3 3 5 5 7 4 3 2 1 3 4 3 3 0 5
23 22 20 18 16 15 14 14 14 14 13 10 10 10 9 6 7 6 11 14 14 13 12 9 7 7 5 5 5 4 3 4 6 4 2 3 3 1 4 4 2 4 4
23 23 23 21 18 16 14 15 15 15 14 14 10 9 9 8 5 7 8 8 13 13 13 10 8 7 5 5 5 6 5 3 3 6 3 2 2 6 2 3 5 4 6
21 22 22 21 20 17 14 13 14 15 14 16 14 17 10 10 6 8 9 8 12 12 10 12 8 7 6 6 6 5 4 3 3 1 3 3 3 3 5 2 5 4 9
17 18 19 20 18 15 14 13 13 14 15 17 15 13 13 9 9 9 12 11 8 11 11 12 9 8 5 7 6 5 4 3 1 2 2 2 3 3 4 9 6 10 9
14 16 16 15 16 14 13 14 16 15 16 16 16 16 18 17 12 11 9 6 6 6 9 11 9 9 7 6 6 5 4 3 1 0 1 3 3 4 5 8 11 13 11
12 12 14 13 13 16 15 14 17 16 16 17 17 17 17 18 18 16 10 10 8 6 8 8 8 6 7 6 6 4 3 1 1 2 2 3 4 4 6 8 11 12 12
15 13 15 13 15 16 18 17 18 17 17 17 18 16 17 10 10 12 10 8 8 8 9 8 9 9 7 6 5 3 1 0 2 3 3 4 4 5 6 8 10 13 11
14 14 15 12 15 15 19 19 19 18 17 18 17 18 17 15 13 13 10 7 9 9 10 9 8 7 6 5 3 1 1 1 2 4 4 4 5 5 7 8 9 11 14
17 18 15 14 12 14 16 17 17 18 18 19 18 16 16 15 14 12 11 12 11 11 10 9 7 6 5 4 1 1 0 2 3 4 5 6 6 7 7 8 9 10 12
26 24 17 14 12 14 16 17 18 19 18 18 18 19 17 15 13 12 13 12 12 11 9 8 7 5 4 2 0 1 1 4 4 5 6 7 8 7 8 9 9 10 11
21 21 17 14 16 16 17 18 17 18 17 18 19 18 16 14 14 14 14 13 11 10 8 7 6 4 3 1 2 2 3 5 6 6 7 9 7 10 10 9 12 11 13
1 11 14 15 18 16 17 18 18 18 17 20 18 17 15 16 15 15 13 12 11 10 8 6 5 3 2 1 2 4 5 6 7 7 8 10 10 11 10 11 11 12 11
5 11 13 15 19 17 18 18 18 16 16 17 17 16 16 15 14 14 13 11 10 9 7 5 4 3 1 2 4 5 7 7 8 8 9 11 11 12 13 12 14 13 13
9 12 14 15 17 17 17 16 16 15 16 16 17 17 15 15 14 13 12 10 9 8 6 5 3 2 1 2 6 7 8 9 10 10 10 11 12 17 16 11 13 16 13
10 12 15 18 17 18 16 16 16 15 15 15 17 16 15 14 13 12 11 10 8 7 5 3 2 2 2 5 7 9 9 9 10 11 11 12 14 14 19 20 22 18 14
12 13 15 15 14 15 17 17 16 15 14 17 16 15 14 13 12 11 10 9 7 6 4 3 2 3 4 6 9 11 9 9 10 12 11 11 10 14 14 18 23 20 22
12 13 12 13 14 15 15 16 15 16 16 16 15 14 13 13 11 10 9 7 5 4 3 2 2 3 3 7 10 12 10 9 11 12 12 13 14 14 16 17 13 14 17
12 11 12 14 15 15 16 18 16 16 16 15 14 13 12 12 10 9 8 6 5 3 2 1 3 4 5 7 11 12 10 10 11 11 12 12 14 18 23 16 15 18 17
13 15 16 16 17 16 16 16 16 15 15 14 13 12 11 11 10 8 7 5 3 2 1 2 3 3 6 7 11 11 8 10 10 12 13 17 15 22 23 16 16 16 16
15 15 15 15 16 16 15 15 14 14 14 14 13 11 10 10 9 8 6 4 3 1 2 4 4 4 5 8 11 12 9 9 10 11 11 11 21 24 25 24 16 15 17
13 13 13 13 14 15 15 16 15 14 13 12 11 10 9 7 6 7 5 3 2 3 4 5 5 4 6 7 10 13 14 15 11 12 11 13 23 25 25 19 19 22 20
13 14 15 15 13 13 13 15 12 12 12 11 11 10 9 8 6 5 4 2 2 3 4 5 6 7 7 7 11 14 16 17 12 10 16 25 23 23 17 18 21 18 9
12 14 16 16 15 12 12 13 12 11 11 11 10 9 8 7 5 3 2 1 2 3 4 5 6 7 8 8 8 10 11 15 11 15 13 16 17 17 15 13 11 9 9
12 13 14 14 14 13 13 11 11 11 11 11 9 8 6 5 4 3 2 2 1 3 5 5 7 8 8 9 14 14 11 10 14 16 11 9 10 9 9 9 10 10 10
13 13 14 15 13 13 12 10 10 11 12 10 7 5 4 4 2 1 1 3 3 5 6 8 8 8 12 16 18 19 20 21 20 11 9 9 9 10 10 10 11 11 12
Wind_Direction
246 247 248 245 235 233 229 220 208 200 189 190 189 190 182 163 150 136 133 138 136 134 119 118 125 116 108 107 100 96 52 35 1 333 341 227 202 221 216 254 306 317 311
246 244 239 238 234 231 223 220 207 193 191 184 185 183 151 130 122 109 128 124 130 127 124 129 119 126 119 103 84 67 75 50 22 3 295 322 186 198 211 296 273 312 321
243 240 235 231 228 225 220 212 205 191 185 181 158 135 123 116 106 116 121 125 123 120 116 116 129 114 122 108 89 71 52 55 56 31 346 305 315 335 252 232 304 291 323
241 243 242 238 224 223 217 209 201 188 178 166 167 170 166 152 144 132 126 121 115 107 111 119 120 126 115 112 92 78 68 39 39 143 40 3 329 322 308 233 281 321 300
245 243 238 238 237 221 207 192 189 183 175 178 173 171 153 127 124 121 122 124 114 117 129 122 140 111 109 99 99 93 72 64 36 9 351 311 294 268 277 299 308 303 311
247 247 245 241 234 224 201 179 177 179 176 172 168 164 149 138 133 132 129 127 124 136 129 128 117 112 109 107 98 92 83 71 65 1 298 301 307 306 293 297 300 302 308
259 246 253 234 225 212 198 179 173 174 174 168 159 156 154 152 145 143 142 133 136 146 136 131 126 114 109 106 102 96 108 89 316 284 305 273 276 293 290 291 295 298 302
265 256 257 246 226 207 195 180 172 167 168 160 154 149 145 143 137 134 138 139 150 137 140 128 120 117 118 109 102 106 137 192 240 277 287 290 287 288 290 293 301 304 297
261 265 260 243 225 204 191 178 169 163 162 154 147 144 143 137 134 127 126 133 132 136 133 130 123 123 110 99 116 129 197 245 289 298 295 290 297 294 290 291 291 297 303
277 270 261 238 208 201 184 171 163 157 154 148 145 142 137 131 129 127 129 137 134 132 133 130 131 122 115 117 152 191 160 304 302 301 303 304 303 300 295 292 290 287 289
275 257 251 224 198 179 167 159 153 148 150 145 138 134 135 127 128 129 133 136 133 132 131 132 132 129 124 123 85 360 308 297 299 300 305 303 304 299 299 296 293 290 289
273 236 214 188 156 160 157 151 147 146 144 140 133 126 123 125 130 132 131 132 127 127 128 130 126 122 113 73 358 320 294 295 301 309 305 306 308 302 301 297 295 293 292
9 146 150 161 142 151 149 144 140 139 139 136 123 119 123 134 130 129 128 127 128 126 125 126 124 115 86 7 328 303 297 300 304 304 305 307 306 301 303 300 296 295 290
136 134 145 149 134 144 142 135 129 133 134 126 120 123 131 132 129 126 126 127 129 125 122 118 112 102 69 328 308 303 304 304 301 303 298 301 299 299 302 298 300 302 294
133 136 142 138 125 131 130 126 123 127 126 121 124 125 126 126 125 124 124 125 121 118 120 127 120 75 350 341 325 314 309 303 302 301 298 297 300 297 297 298 297 303 302
124 137 134 125 128 132 128 123 124 124 124 122 122 123 125 126 124 125 126 124 122 124 130 117 70 3 339 344 319 318 310 302 300 301 304 303 302 301 300 302 300 297 291
139 136 129 122 134 131 128 127 125 125 120 122 123 125 127 126 126 126 126 126 125 129 114 88 20 344 334 334 325 319 306 305 304 303 306 308 306 304 303 301 296 304 301
123 123 119 119 122 123 122 122 122 125 125 123 123 126 128 127 129 130 126 119 127 109 88 46 359 330 335 324 323 321 305 301 301 305 308 303 305 307 309 308 306 298 297
131 126 122 123 126 125 128 126 127 126 124 125 126 130 133 133 134 127 122 124 118 107 66 359 333 326 313 330 327 321 312 306 305 307 304 306 304 309 313 314 305 307 305
129 132 134 132 131 134 131 124 128 126 122 127 130 134 136 130 125 127 124 112 101 83 13 327 311 322 315 319 321 324 313 311 314 312 311 309 310 314 313 312 313 307 308
133 131 132 129 129 133 130 123 123 123 127 130 131 126 123 121 121 116 116 109 92 27 334 319 316 308 319 322 324 323 318 318 316 312 313 312 319 313 320 315 309 305 305
127 128 121 125 130 134 126 127 125 130 130 125 123 122 119 115 121 119 112 99 51 351 331 326 322 320 319 316 322 326 321 318 314 314 312 315 313 318 314 313 309 307 312
140 139 134 131 135 138 133 125 130 127 123 120 118 115 118 115 116 115 105 88 17 344 337 329 319 322 328 326 326 319 320 319 313 306 311 313 317 315 314 313 312 311 307
138 135 132 131 130 120 116 120 128 128 122 116 121 125 123 121 108 98 84 42 5 343 321 319 322 322 322 324 330 326 322 316 315 320 312 314 312 308 307 312 315 313 309
133 136 132 129 125 121 120 127 129 127 120 122 127 123 117 111 110 94 46 11 1 314 322 326 322 320 318 326 320 319 316 319 321 325 312 313 315 315 316 318 314 313 315
128 124 124 123 124 122 120 122 126 127 129 127 126 120 117 110 89 57 22 177 299 309 314 319 316 316 313 319 322 315 320 326 324 314 311 312 314 315 319 317 314 313 310